Hamilton Island, Australia

8:18 AM AEST on October 20, 2017 (GMT +1000)
Hamilton Island

Weather History for YBHM - January, 2013

Change the Weather History Date:

Monday, January 7, 2013

  Actual Average Record
Temperature  
Mean Temperature 78 °F -  
Max Temperature 84 °F - - ()
Min Temperature 73 °F - - ()
Cooling Degree Days 14    
Growing Degree Days 28 (Base 50)    
Moisture  
Dew Point 72 °F    
Average Humidity 76    
Maximum Humidity 100    
Minimum Humidity 56    
Precipitation  
Precipitation 0.16 in - - ()
Sea Level Pressure  
Sea Level Pressure 29.89 in    
Wind  
Wind Speed 25 mph ()    
Max Wind Speed 48 mph    
Max Gust Speed 53 mph    
T = Trace of Precipitation, MM = Missing Value Source: Averaged Metar Reports

Daily Weather History Graph

Daily Weather History Graph

Search for Another Location

Airport or City:

Trip Planner

Search our weather history database for the weather conditions in past years. The results will help you decide how hot, cold, wet, or windy it might be!

Date:

Astronomy

Jan. 07, 2013 Rise Set
Actual Time 5:31 AM AEST 6:49 PM AEST
Civil Twilight 5:06 AM AEST 7:13 PM AEST
Nautical Twilight 4:37 AM AEST 7:42 PM AEST
Astronomical Twilight 4:07 AM AEST 8:12 PM AEST
Moon 12:46 AM AEST (1/7) 2:02 PM AEST (1/7)
Length of Visible Light 14h 07m
Length of Day
13h 18m
Waning Crescent, 29% of the Moon is Illuminated
Jan 7
Waning Crescent
Jan 12
New
Jan 19
First Quarter
Jan 27
Full
Feb 3
Last Quarter

Hourly Weather History & Observations

Time (AEST) Temp. Heat Index Dew Point Humidity Pressure Visibility Wind Dir Wind Speed Gust Speed Precip Events Conditions
12:00 AM 79 °F - 73 °F 76% 29.91 in - ESE 24.2 mph - -  
12:00 AM 78.8 °F - 73.4 °F 83% 29.92 in - ESE 24.2 mph - N/A   Unknown
12:30 AM 78.8 °F - 73.4 °F 83% 29.89 in - ESE 25.3 mph - N/A   Unknown
1:00 AM 78.8 °F - 71.6 °F 78% 29.89 in - ESE 25.3 mph - N/A   Unknown
1:30 AM 78.8 °F - 73.4 °F 83% 29.89 in - ESE 25.3 mph - N/A   Unknown
2:00 AM 78.8 °F - 71.6 °F 78% 29.86 in - ESE 26.5 mph - N/A   Unknown
2:30 AM 78.8 °F - 73.4 °F 83% 29.86 in - ESE 29.9 mph - N/A   Unknown
3:00 AM 79 °F - 72 °F 75% 29.86 in - ESE 29.9 mph - -  
3:00 AM 78.8 °F - 73.4 °F 83% 29.86 in - ESE 29.9 mph - N/A   Unknown
3:30 AM 78.8 °F - 71.6 °F 78% 29.86 in - ESE 29.9 mph - N/A   Unknown
4:00 AM 78.8 °F - 71.6 °F 78% 29.86 in - ESE 28.8 mph - N/A   Unknown
4:30 AM 78.8 °F - 71.6 °F 78% 29.86 in - ESE 27.6 mph - N/A   Unknown
5:00 AM 78.8 °F - 71.6 °F 78% 29.89 in - ESE 29.9 mph - N/A   Unknown
5:30 AM 78.8 °F - 68.0 °F 69% 29.89 in - ESE 28.8 mph - N/A   Unknown
6:00 AM 79 °F - 69 °F 64% 29.90 in - ESE 29.9 mph - -  
6:00 AM 78.8 °F - 69.8 °F 74% 29.89 in - ESE 29.9 mph - N/A   Unknown
6:30 AM 80.6 °F 83.9 °F 69.8 °F 70% 29.89 in - ESE 28.8 mph - N/A   Unknown
7:00 AM 80.6 °F 83.9 °F 69.8 °F 70% 29.92 in - ESE 28.8 mph - N/A   Unknown
7:30 AM 80.6 °F 83.2 °F 68.0 °F 65% 29.92 in - ESE 25.3 mph - N/A   Unknown
8:00 AM 82.4 °F 87.2 °F 71.6 °F 70% 29.92 in - ESE 26.5 mph - N/A   Unknown
8:30 AM 82.4 °F 87.2 °F 71.6 °F 70% 29.92 in - ESE 26.5 mph - N/A   Unknown
9:00 AM 83 °F - 71 °F 58% 29.93 in - ESE 25.3 mph - -  
9:00 AM 82.4 °F 87.2 °F 71.6 °F 70% 29.92 in - ESE 25.3 mph - N/A   Unknown
9:30 AM 82.4 °F 87.2 °F 71.6 °F 70% 29.92 in - ESE 26.5 mph - N/A   Unknown
10:00 AM 84.2 °F 89.6 °F 71.6 °F 66% 29.92 in - ESE 25.3 mph - N/A   Unknown
10:30 AM 84.2 °F 89.6 °F 71.6 °F 66% 29.92 in - ESE 27.6 mph - N/A   Unknown
11:00 AM 84.2 °F 89.6 °F 71.6 °F 66% 29.92 in - ESE 27.6 mph - N/A   Unknown
11:30 AM 84.2 °F 89.6 °F 71.6 °F 66% 29.92 in - ESE 27.6 mph - N/A   Unknown
12:00 PM 84 °F - 71 °F 56% 29.91 in - ESE 24.2 mph - -  
12:00 PM 84.2 °F 89.6 °F 71.6 °F 66% 29.92 in - ESE 24.2 mph - N/A   Unknown
12:30 PM 84.2 °F 89.6 °F 71.6 °F 66% 29.89 in - ESE 27.6 mph - N/A   Unknown
1:00 PM 84.2 °F 88.4 °F 69.8 °F 62% 29.89 in - ESE 28.8 mph - N/A   Unknown
1:30 PM 84.2 °F 89.6 °F 71.6 °F 66% 29.89 in - ESE 26.5 mph - N/A   Unknown
2:00 PM 84.2 °F 89.6 °F 71.6 °F 66% 29.86 in - ESE 26.5 mph - N/A   Unknown
2:30 PM 82.4 °F 87.2 °F 71.6 °F 70% 29.86 in - ESE 26.5 mph - N/A   Unknown
3:00 PM 82 °F - 71 °F 61% 29.86 in - ESE 26.5 mph - -  
3:00 PM 82.4 °F 87.2 °F 71.6 °F 70% 29.86 in - ESE 26.5 mph - N/A   Unknown
3:30 PM 80.6 °F 84.6 °F 71.6 °F 74% 29.86 in - ESE 25.3 mph - N/A   Unknown
4:00 PM 80.6 °F 84.6 °F 71.6 °F 74% 29.86 in - ESE 26.5 mph - N/A   Unknown
4:30 PM 80.6 °F 84.6 °F 71.6 °F 74% 29.86 in - ESE 26.5 mph - N/A   Unknown
5:00 PM 80.6 °F 83.9 °F 69.8 °F 70% 29.86 in - ESE 26.5 mph - N/A   Unknown
5:30 PM 80.6 °F 84.6 °F 71.6 °F 74% 29.86 in - ESE 23.0 mph - N/A   Unknown
5:42 PM 80.6 °F 84.6 °F 71.6 °F 74% 29.86 in - ESE 26.5 mph 40.3 mph N/A   Unknown
6:00 PM 79 °F - 72 °F 73% 29.87 in - ESE 27.6 mph - -  
6:00 PM 78.8 °F - 71.6 °F 78% 29.86 in - ESE 27.6 mph - N/A   Unknown
6:30 PM 80.6 °F 84.6 °F 71.6 °F 74% 29.89 in - ESE 26.5 mph - N/A   Unknown
7:00 PM 80.6 °F 84.6 °F 71.6 °F 74% 29.89 in - ESE 29.9 mph - N/A   Unknown
7:30 PM 78.8 °F - 73.4 °F 83% 29.89 in - ESE 26.5 mph - N/A   Unknown
8:00 PM 78.8 °F - 73.4 °F 83% 29.92 in - ESE 27.6 mph - N/A   Unknown
8:31 PM 77.0 °F - 71.6 °F 83% 29.89 in - ESE 33.4 mph 44.9 mph N/A   Unknown
8:38 PM 75.2 °F - 69.8 °F 83% 29.89 in - East 48.3 mph - N/A   Unknown
8:43 PM 73.4 °F - 71.6 °F 94% 29.92 in - East 31.1 mph 52.9 mph N/A   Unknown
9:00 PM 76 °F - 74 °F 91% 29.91 in - ESE 20.7 mph - -  
9:00 PM 77.0 °F - 73.4 °F 89% 29.92 in - ESE 20.7 mph - N/A   Unknown
9:30 PM 75.2 °F - 73.4 °F 94% 29.92 in - ESE 31.1 mph - N/A   Unknown
9:44 PM 75.2 °F - 73.4 °F 94% 29.92 in - East 27.6 mph 39.1 mph N/A   Unknown
10:00 PM 75.2 °F - 71.6 °F 89% 29.92 in - ESE 29.9 mph - N/A   Unknown
10:30 PM 77.0 °F - 73.4 °F 89% 29.92 in - ESE 23.0 mph - N/A   Unknown
11:01 PM 75.2 °F - 73.4 °F 94% 29.89 in - ESE 27.6 mph 39.1 mph N/A   Unknown
11:14 PM 75.2 °F - 73.4 °F 94% 29.89 in - East 29.9 mph - N/A   Unknown
11:29 PM 75.2 °F - 75.2 °F 100% 29.89 in - ESE 21.9 mph 34.5 mph N/A   Unknown
11:37 PM 75.2 °F - 73.4 °F 94% 29.89 in - ESE 25.3 mph 38.0 mph N/A   Unknown